Jefferson City, MO

11:18 PM CDT on March 24, 2017 (GMT -0500)
Jefferson City Memorial

Weather History for KJEF - December, 2012

Change the Weather History Date:

Sunday, December 9, 2012

  Actual Average Record
Temperature  
Mean Temperature 37 °F -  
Max Temperature 46 °F 44 °F 78 °F (1991)
Min Temperature 28 °F 25 °F 1 °F (1927)
Degree Days  
Heating Degree Days 28    
Moisture  
Dew Point 35 °F    
Average Humidity 79    
Maximum Humidity 90    
Minimum Humidity 64    
Precipitation  
Precipitation 0.04 in - - ()
Sea Level Pressure  
Sea Level Pressure 29.87 in    
Wind  
Wind Speed 7 mph (NW)    
Max Wind Speed 18 mph    
Max Gust Speed 26 mph    
Visibility 7 miles    
Events Rain    
Averages and records for this station are not official NWS values.
T = Trace of Precipitation, MM = Missing Value Source: NWS Daily Summary

Daily Weather History Graph

Daily Weather History Graph

Search for Another Location

Airport or City:

Trip Planner

Search our weather history database for the weather conditions in past years. The results will help you decide how hot, cold, wet, or windy it might be!

Date:

Astronomy

Dec. 09, 2012 Rise Set
Actual Time 7:15 AM CST 4:47 PM CST
Civil Twilight 6:45 AM CST 5:17 PM CST
Nautical Twilight 6:12 AM CST 5:50 PM CST
Astronomical Twilight 5:39 AM CST 6:22 PM CST
Moon 2:50 AM CST (12/9) 1:52 PM CST (12/9)
Length of Visible Light 10h 31m
Length of Day
9h 32m
Waning Crescent, 18% of the Moon is Illuminated
Dec 9
Waning Crescent
Dec 13
New
Dec 19
First Quarter
Dec 28
Full
Jan 4
Last Quarter

Hourly Weather History & Observations

Time (CST) Temp. Windchill Dew Point Humidity Pressure Visibility Wind Dir Wind Speed Gust Speed Precip Events Conditions
12:53 AM 43.0 °F 38.8 °F 39.9 °F 89% 29.87 in 4.0 mi East 6.9 mph - 0.02 in Rain Light Rain
1:18 AM 42.8 °F 41.1 °F 39.2 °F 87% 29.88 in 4.0 mi Variable 3.5 mph - 0.00 in Rain Light Rain
1:25 AM 42.8 °F 38.6 °F 39.2 °F 87% 29.88 in 4.0 mi ESE 6.9 mph - 0.01 in Rain Light Rain
1:34 AM 42.8 °F 38.0 °F 39.2 °F 87% 29.87 in 4.0 mi East 8.1 mph - 0.01 in Rain Light Rain
1:53 AM 43.0 °F 38.8 °F 39.9 °F 89% 29.85 in 5.0 mi East 6.9 mph - 0.01 in   Overcast
2:05 AM 44.6 °F 40.7 °F 39.2 °F 81% 29.86 in 6.0 mi ESE 6.9 mph - N/A   Overcast
2:49 AM 44.6 °F 40.7 °F 39.2 °F 81% 29.86 in 7.0 mi ESE 6.9 mph - N/A   Overcast
2:53 AM 44.1 °F 40.8 °F 39.9 °F 85% 29.83 in 6.0 mi ESE 5.8 mph - N/A   Overcast
3:53 AM 44.1 °F 41.5 °F 41.0 °F 89% 29.82 in 7.0 mi ESE 4.6 mph - N/A   Overcast
4:53 AM 44.1 °F 42.5 °F 41.0 °F 89% 29.81 in 6.0 mi ESE 3.5 mph - N/A   Overcast
6:53 AM 45.0 °F - 42.1 °F 90% 29.81 in 7.0 mi Calm Calm - N/A   Overcast
7:53 AM 45.0 °F - 42.1 °F 90% 29.82 in 6.0 mi Calm Calm - N/A   Overcast
8:53 AM 46.0 °F - 42.1 °F 86% 29.81 in 5.0 mi Calm Calm - N/A   Overcast
9:53 AM 46.0 °F - 43.0 °F 89% 29.84 in 4.0 mi Calm Calm - 0.00 in   Overcast
10:53 AM 46.0 °F 43.1 °F 43.0 °F 89% 29.83 in 4.0 mi NW 5.8 mph - 0.01 in Rain Light Rain
11:53 AM 46.9 °F - 43.0 °F 86% 29.82 in 7.0 mi NW 12.7 mph - 0.00 in   Overcast
12:53 PM 46.9 °F - 42.1 °F 83% 29.81 in 7.0 mi NW 5.8 mph - N/A   Overcast
1:53 PM 46.0 °F 43.9 °F 41.0 °F 83% 29.80 in 6.0 mi NW 4.6 mph - N/A   Haze
2:07 PM 46.4 °F - 39.2 °F 76% 29.82 in 7.0 mi Calm Calm - N/A   Overcast
2:53 PM 46.0 °F 41.4 °F 39.9 °F 79% 29.81 in 7.0 mi WNW 9.2 mph - N/A   Overcast
3:53 PM 46.0 °F 40.6 °F 39.0 °F 76% 29.83 in 10.0 mi WNW 11.5 mph 19.6 mph N/A   Overcast
4:53 PM 46.0 °F 41.4 °F 37.9 °F 73% 29.84 in 10.0 mi NW 9.2 mph - N/A   Overcast
5:53 PM 45.0 °F 38.2 °F 37.0 °F 74% 29.86 in 10.0 mi NW 15.0 mph 21.9 mph N/A   Overcast
6:53 PM 43.0 °F 36.4 °F 33.1 °F 68% 29.90 in 10.0 mi WNW 12.7 mph - N/A   Overcast
7:26 PM 41.0 °F 33.9 °F 30.2 °F 65% 29.93 in 10.0 mi WNW 12.7 mph 20.7 mph N/A   Mostly Cloudy
7:53 PM 39.0 °F 32.3 °F 30.0 °F 70% 29.93 in 10.0 mi WNW 10.4 mph 23.0 mph N/A   Partly Cloudy
8:53 PM 34.0 °F 23.0 °F 23.0 °F 64% 29.95 in 10.0 mi WNW 18.4 mph 26.5 mph N/A   Scattered Clouds
9:00 PM 33.8 °F 23.2 °F 23.0 °F 65% 29.97 in 10.0 mi WNW 17.3 mph 26.5 mph N/A   Mostly Cloudy
9:27 PM 32.0 °F 22.5 °F 21.2 °F 64% 29.98 in 10.0 mi NW 12.7 mph 20.7 mph N/A   Scattered Clouds
9:53 PM 30.0 °F 20.0 °F 19.9 °F 66% 29.97 in 10.0 mi WNW 12.7 mph 18.4 mph N/A   Clear
10:53 PM 28.9 °F 19.8 °F 19.0 °F 67% 29.98 in 10.0 mi WNW 10.4 mph 19.6 mph N/A   Scattered Clouds
11:04 PM 28.4 °F 18.5 °F 19.4 °F 69% 30.00 in 10.0 mi WNW 11.5 mph 17.3 mph N/A   Mostly Cloudy
11:53 PM 28.0 °F 16.5 °F 18.0 °F 66% 29.98 in 10.0 mi WNW 15.0 mph 23.0 mph N/A   Overcast